When you browse on this site, cookies collect data to enhance your experience and personalize the content and advertising you see.
Visit our Privacy Policy to learn more. By continuing to use the site, you agree to this use of cookies and data.
  • en France
  • Liste des pays
  • À 7 jours
  • Température de l'eau
  • Carte météo
  • Widgets météo
  • user-avatar
    Se connecter

    Météo par heure à Luksor

    Ce jour, 17 Septembre, Mardi

    Heure Température Précipitation Vent Pression Humidité
    00:00 +28°C° 0 mm 3 m/s 750 mmHg 33%
    01:00 +28°C° 0 mm 3 m/s 749 mmHg 35%
    02:00 +27°C° 0 mm 3 m/s 749 mmHg 36%
    03:00 +26°C° 0 mm 3 m/s 749 mmHg 38%
    04:00 +26°C° 0 mm 3 m/s 749 mmHg 39%
    05:00 +25°C° 0 mm 3 m/s 749 mmHg 41%
    06:00 +27°C° 0 mm 3 m/s 750 mmHg 38%
    07:00 +29°C° 0 mm 3 m/s 750 mmHg 35%
    08:00 +31°C° 0 mm 3 m/s 750 mmHg 31%
    09:00 +34°C° 0 mm 3 m/s 750 mmHg 27%
    10:00 +36°C° 0 mm 4 m/s 750 mmHg 22%
    11:00 +38°C° 0 mm 4 m/s 750 mmHg 18%
    12:00 +40°C° 0 mm 4 m/s 749 mmHg 16%
    13:00 +41°C° 0 mm 4 m/s 748 mmHg 13%
    14:00 +43°C° 0 mm 3 m/s 748 mmHg 11%
    15:00 +42°C° 0 mm 4 m/s 747 mmHg 11%
    16:00 +42°C° 0 mm 4 m/s 747 mmHg 11%
    17:00 +42°C° 0 mm 5 m/s 747 mmHg 11%
    18:00 +40°C° 0 mm 5 m/s 748 mmHg 13%
    19:00 +37°C° 0 mm 5 m/s 748 mmHg 15%
    20:00 +34°C° 0 mm 5 m/s 748 mmHg 18%
    21:00 +34°C° 0 mm 4 m/s 748 mmHg 19%
    22:00 +33°C° 0 mm 4 m/s 749 mmHg 21%
    23:00 +31°C° 0 mm 3 m/s 749 mmHg 22%

    Demain, 18 Septembre, Mercredi

    Heure Température Précipitation Vent Pression Humidité
    00:00 +30°C° 0 mm 3 m/s 748 mmHg 25%
    01:00 +29°C° 0 mm 3 m/s 748 mmHg 27%
    02:00 +29°C° 0 mm 3 m/s 748 mmHg 30%
    03:00 +28°C° 0 mm 2 m/s 748 mmHg 33%
    04:00 +28°C° 0 mm 2 m/s 748 mmHg 36%
    05:00 +27°C° 0 mm 2 m/s 749 mmHg 38%
    06:00 +28°C° 0 mm 2 m/s 749 mmHg 36%
    07:00 +30°C° 0 mm 2 m/s 749 mmHg 34%
    08:00 +31°C° 0 mm 2 m/s 750 mmHg 32%
    09:00 +35°C° 0 mm 2 m/s 750 mmHg 27%
    10:00 +37°C° 0 mm 3 m/s 750 mmHg 23%
    11:00 +39°C° 0 mm 3 m/s 750 mmHg 18%
    12:00 +42°C° 0 mm 3 m/s 749 mmHg 17%
    13:00 +43°C° 0 mm 3 m/s 749 mmHg 15%
    14:00 +44°C° 0 mm 4 m/s 748 mmHg 13%
    15:00 +44°C° 0 mm 4 m/s 748 mmHg 13%
    16:00 +43°C° 0 mm 5 m/s 748 mmHg 13%
    17:00 +43°C° 0 mm 5 m/s 748 mmHg 14%
    18:00 +41°C° 0 mm 5 m/s 748 mmHg 15%
    19:00 +39°C° 0 mm 5 m/s 749 mmHg 17%
    20:00 +36°C° 0 mm 5 m/s 749 mmHg 18%
    21:00 +35°C° 0 mm 5 m/s 749 mmHg 20%
    22:00 +34°C° 0 mm 4 m/s 749 mmHg 21%
    23:00 +33°C° 0 mm 4 m/s 749 mmHg 23%

    Après-demain, 19 Septembre, Jeudi

    Heure Température Précipitation Vent Pression Humidité
    00:00 +32°C° 0 mm 4 m/s 749 mmHg 25%
    01:00 +32°C° 0 mm 4 m/s 749 mmHg 26%
    02:00 +30°C° 0 mm 3 m/s 749 mmHg 28%
    03:00 +29°C° 0 mm 3 m/s 749 mmHg 29%
    04:00 +28°C° 0 mm 3 m/s 749 mmHg 31%
    05:00 +27°C° 0 mm 2 m/s 749 mmHg 32%
    06:00 +29°C° 0 mm 2 m/s 749 mmHg 31%
    07:00 +30°C° 0 mm 3 m/s 750 mmHg 30%
    08:00 +33°C° 0 mm 3 m/s 750 mmHg 28%
    09:00 +35°C° 0 mm 4 m/s 750 mmHg 25%
    10:00 +38°C° 0 mm 4 m/s 750 mmHg 21%
    11:00 +41°C° 0 mm 5 m/s 750 mmHg 18%
    12:00 +43°C° 0 mm 5 m/s 749 mmHg 16%
    13:00 +45°C° 0 mm 6 m/s 748 mmHg 15%
    14:00 +47°C° 0 mm 6 m/s 748 mmHg 13%
    15:00 +46°C° 0 mm 6 m/s 747 mmHg 14%
    16:00 +45°C° 0 mm 7 m/s 747 mmHg 15%
    17:00 +45°C° 0 mm 7 m/s 747 mmHg 15%
    18:00 +43°C° 0 mm 7 m/s 748 mmHg 17%
    19:00 +40°C° 0 mm 7 m/s 748 mmHg 19%
    20:00 +38°C° 0 mm 7 m/s 749 mmHg 21%
    21:00 +36°C° 0 mm 6 m/s 749 mmHg 23%
    22:00 +35°C° 0 mm 6 m/s 749 mmHg 25%
    23:00 +34°C° 0 mm 5 m/s 749 mmHg 27%

    20 Septembre, Vendredi

    Heure Température Précipitation Vent Pression Humidité
    00:00 +33°C° 0 mm 5 m/s 749 mmHg 29%
    01:00 +32°C° 0 mm 4 m/s 748 mmHg 30%
    02:00 +30°C° 0 mm 4 m/s 748 mmHg 32%
    03:00 +29°C° 0 mm 4 m/s 748 mmHg 35%
    04:00 +28°C° 0 mm 4 m/s 748 mmHg 38%
    05:00 +27°C° 0 mm 3 m/s 748 mmHg 41%
    06:00 +28°C° 0 mm 4 m/s 748 mmHg 42%
    07:00 +30°C° 0 mm 4 m/s 749 mmHg 43%
    08:00 +32°C° 0 mm 4 m/s 749 mmHg 44%
    09:00 +35°C° 0 mm 5 m/s 749 mmHg 38%
    10:00 +38°C° 0 mm 6 m/s 749 mmHg 31%
    11:00 +41°C° 0 mm 7 m/s 748 mmHg 24%
    12:00 +44°C° 0 mm 7 m/s 748 mmHg 21%
    13:00 +45°C° 0 mm 7 m/s 747 mmHg 17%
    14:00 +47°C° 0 mm 7 m/s 747 mmHg 14%
    15:00 +46°C° 0 mm 7 m/s 747 mmHg 15%
    16:00 +45°C° 0 mm 8 m/s 747 mmHg 15%
    17:00 +44°C° 0 mm 8 m/s 747 mmHg 16%
    18:00 +41°C° 0 mm 8 m/s 747 mmHg 18%
    19:00 +39°C° 0 mm 8 m/s 748 mmHg 20%
    20:00 +36°C° 0 mm 7 m/s 748 mmHg 22%
    21:00 +35°C° 0 mm 6 m/s 748 mmHg 25%
    22:00 +33°C° 0 mm 5 m/s 748 mmHg 27%
    23:00 +32°C° 0 mm 4 m/s 748 mmHg 29%

    21 Septembre, Samedi

    Heure Température Précipitation Vent Pression Humidité
    00:00 +30°C° 0 mm 4 m/s 748 mmHg 29%
    01:00 +30°C° 0 mm 4 m/s 748 mmHg 30%
    02:00 +29°C° 0 mm 4 m/s 747 mmHg 31%
    03:00 +28°C° 0 mm 4 m/s 747 mmHg 34%
    04:00 +27°C° 0 mm 4 m/s 747 mmHg 37%
    05:00 +26°C° 0 mm 4 m/s 747 mmHg 41%
    06:00 +27°C° 0 mm 4 m/s 748 mmHg 40%
    07:00 +29°C° 0 mm 4 m/s 748 mmHg 38%
    08:00 +30°C° 0 mm 5 m/s 749 mmHg 37%
    09:00 +34°C° 0 mm 5 m/s 748 mmHg 31%
    10:00 +38°C° 0 mm 6 m/s 748 mmHg 25%
    11:00 +40°C° 0 mm 7 m/s 748 mmHg 19%
    12:00 +43°C° 0 mm 7 m/s 748 mmHg 16%
    13:00 +44°C° 0 mm 7 m/s 747 mmHg 13%
    14:00 +45°C° 0 mm 8 m/s 746 mmHg 10%
    15:00 +44°C° 0 mm 8 m/s 746 mmHg 10%
    16:00 +43°C° 0 mm 8 m/s 746 mmHg 10%
    17:00 +41°C° 0 mm 8 m/s 746 mmHg 10%
    18:00 +39°C° 0 mm 7 m/s 747 mmHg 13%
    19:00 +36°C° 0 mm 7 m/s 747 mmHg 16%
    20:00 +34°C° 0 mm 7 m/s 748 mmHg 19%
    21:00 +33°C° 0 mm 6 m/s 748 mmHg 21%
    22:00 +32°C° 0 mm 5 m/s 748 mmHg 23%
    23:00 +30°C° 0 mm 4 m/s 748 mmHg 25%

    22 Septembre, Dimanche

    Heure Température Précipitation Vent Pression Humidité
    00:00 +29°C° 0 mm 4 m/s 748 mmHg 27%
    01:00 +28°C° 0 mm 4 m/s 747 mmHg 28%
    02:00 +28°C° 0 mm 4 m/s 747 mmHg 30%
    03:00 +27°C° 0 mm 4 m/s 747 mmHg 35%
    04:00 +26°C° 0 mm 4 m/s 747 mmHg 40%
    05:00 +25°C° 0 mm 4 m/s 748 mmHg 46%
    06:00 +27°C° 0 mm 4 m/s 748 mmHg 43%
    07:00 +28°C° 0 mm 5 m/s 748 mmHg 40%
    08:00 +30°C° 0 mm 5 m/s 749 mmHg 38%
    09:00 +34°C° 0 mm 6 m/s 749 mmHg 30%
    10:00 +36°C° 0 mm 7 m/s 749 mmHg 22%
    11:00 +40°C° 0 mm 8 m/s 749 mmHg 15%
    12:00 +41°C° 0 mm 8 m/s 748 mmHg 13%
    13:00 +43°C° 0 mm 8 m/s 748 mmHg 11%
    14:00 +44°C° 0 mm 9 m/s 747 mmHg 10%
    15:00 +43°C° 0 mm 9 m/s 747 mmHg 11%
    16:00 +41°C° 0 mm 8 m/s 747 mmHg 13%
    17:00 +40°C° 0 mm 8 m/s 747 mmHg 14%
    18:00 +38°C° 0 mm 8 m/s 747 mmHg 18%
    19:00 +35°C° 0 mm 7 m/s 748 mmHg 21%
    20:00 +33°C° 0 mm 7 m/s 748 mmHg 25%
    21:00 +32°C° 0 mm 6 m/s 749 mmHg 26%
    22:00 +30°C° 0 mm 5 m/s 749 mmHg 28%
    23:00 +29°C° 0 mm 4 m/s 749 mmHg 30%
    Voir plus